Location: Unspecified
(38.9820°N, 94.4650°W)
Time: 00:17:05
(UTC-05:00)

CZ-3 Stage 3 - Visible Passes

Search period start: 29 March 2017 00:00
Search period end: 08 April 2017 00:00
Orbit: 398 x 34802 km, 30.6° (Epoch: 27 March)

Date Brightness Start Highest point End Pass type
(mag) Time Alt. Az. Time Alt. Az. Time Alt. Az.
29 Mar 7.2 19:23:48 10° SSW 19:55:40 49° ESE 04:45:13 10° SE visible
30 Mar 7.9 19:49:36 10° ENE 22:48:45 18° E 00:18:22 10° E visible
31 Mar 9.0 02:53:36 10° W 04:41:44 32° W 08:59:13 10° WNW visible
31 Mar 7.9 22:52:45 10° WSW 01:01:23 77° SW 08:11:53 10° SSW visible
01 Apr 7.2 19:14:40 10° SSW 19:44:56 50° ESE 04:35:57 10° SE visible
02 Apr 7.8 19:44:44 10° ENE 22:39:52 18° E 00:08:22 10° E visible
03 Apr 9.0 02:44:19 10° WNW 04:31:37 32° W 08:46:31 10° WNW visible
03 Apr 7.9 22:43:43 10° WSW 00:50:10 77° SW 08:02:14 10° SSW visible
04 Apr 7.2 19:05:31 10° SSW 19:34:24 50° ESE 04:26:38 10° SE visible
05 Apr 7.7 19:40:08 10° ENE 22:30:57 17° E 23:58:17 10° E visible
06 Apr 9.0 02:35:00 10° WNW 04:21:26 32° W 08:33:47 10° WNW visible
06 Apr 7.9 22:34:38 10° WSW 00:38:52 77° SW 07:52:32 10° SSW visible
